SINOD-D 1

Last updated on Wed Nov 20 2024 00:03:37 GMT+0000 (Coordinated Universal Time)

1 40968U 15058E 24323.98836647 .00007500 00000+0 62301-3 0 9997 2 40968 64.7772 251.0466 0179063 256.5341 101.5761 14.87739200 30812
UTC large
Height (km)
Speed (km/s)
/
Latitude / Longitude
Inclination (degrees)
Orbital Period (minutes)
Azimuth
Elevation
Range (km)
Doppler Factor

Next 0 passes for location: London (51.5072 / 0.1276)

Sorry there are no passes over London.